Other Public Products
Issued by NWS Charleston, SC

Current Version | Previous Version | Graphics & Text | Print | Product List | Glossary On
Versions: 1 2 3 4 5 6 7 8 9 10 11 12 13 14 15 16 17 18 19 20 21 22 23 24 25 26 27 28 29 30 31 32 33 34 35 36 37 38 39 40 41 42 43 44 45 46 47 48 49 50
000
FPUS82 KCHS 242112
OPUCHS

TEST...KCHS/KSAV Gateway Observations...TEST
National Weather Service Charleston SC
400 PM EST SAT FEB 24 2018

NOTE: "fair" indicates few or no clouds below 12,000 feet with no
significant weather and/or obstructions to visibility.

SCZ050-WAZ558-NCZ071-TXZ119-213-PAZ071-DCZ001-FLZ074-172-MI076-
NYZ176-178-MAZ016-IL014-TNZ027-NJZ106-GAZ044-MD014-242200-

...Gateway Observations for Charleston International...

CITY           SKY/WX    TMP DP  RH WIND       PRES   REMARKS
Chas Airport   FAIR      79  61  53 S17       30.13F
Seattle        CLOUDY    40  33  76 SW8       30.13R WCI  34
Charlotte      PTSUNNY   78  59  51 S17       30.06F
Dallas DFW     PTSUNNY   61  49  64 NW15G21   29.85S
Dallas Love    PTSUNNY   60  51  72 NW16      29.86S
Philladelphia  LGT RAIN  50  46  86 CALM      30.17R FOG
Wash National  LGT RAIN  52  49  89 NE10      30.13R
Baltimore      LGT RAIN  49  47  93 E6G18     30.14R
Miami          PTSUNNY   78  67  68 SE15      30.14S
Detroit        PTSUNNY   41  32  70 E14       30.10F
Newark         LGT RAIN  49  43  80 N12       30.17R
Laguardia      RAIN      48  41  76 NW7       30.18R
J F K          RAIN      49  44  83 N7        30.18R
Boston Logan   CLOUDY    52  33  48 N8        30.11S
Ft. Lauderdale FAIR      79  68  69 SE16      30.13S
Chicago O`Hare CLOUDY    40  33  76 E10       29.90F WCI  33
Chicago Midway CLOUDY    41  35  79 E12       29.90F
Houston Bush   CLOUDY    79  66  64 S9G21     29.87F
Houston Hobby  PTSUNNY   78  69  73 S15G26    29.87F
Nashville      PTSUNNY   77  60  55 S15G28    29.89F
Atlanta        FAIR      79  58  48 SW16G23   30.06F

$$

GAZ044-118-TXZ119-213-NCZ071-DCZ001-MDZ014-506-PAZ021-071-NJZ106-
NYZ176-178-MAZ106-OHZ011-021-055-MIZ076-KYZ091-ILZ014-INZ047-
MNZ060-ONZ431-242200-

...Gateway Observations for Savannah International...

CITY           SKY/WX    TMP DP  RH WIND       PRES   REMARKS
Savannah Arpt  FAIR      81  62  52 S15       30.13F
Atlanta        FAIR      79  58  48 SW16G23   30.06F
Charlotte      PTSUNNY   78  59  51 S17       30.06F
Dallas DFW     PTSUNNY   61  49  64 NW15G21   29.85S
Houston Bush   CLOUDY    79  66  64 S9G21     29.87F
Wash National  LGT RAIN  52  49  89 NE10      30.13R
Wash Dulles    LGT RAIN  51  50  96 E7        30.11F
Baltimore      LGT RAIN  49  47  93 E6G18     30.14R
Philadelphia   LGT RAIN  50  46  86 CALM      30.17R FOG
Newark         LGT RAIN  49  43  80 N12       30.17R
Laguardia      RAIN      48  41  76 NW7       30.18R
J F K          RAIN      49  44  83 N7        30.18R
Boston         CLOUDY    52  33  48 N8        30.11S
Pittsburg      CLOUDY    47  45  93 E12       30.03F
Akron          CLOUDY    46  42  86 NE7       30.06R
Cleveland      CLOUDY    41  37  86 NE8       30.09F
Cincinnati     CLOUDY    55  51  86 E5        29.95R
Columbus       CLOUDY    50  48  94 E9        29.99S
Detroit        PTSUNNY   41  32  70 E14       30.10F
Chicago O`Hare CLOUDY    40  33  76 E10       29.90F WCI  33
Minneapolis    SNOW      27  24  89 NE12      29.81F VSB 1/2 WCI  17
Indianapolis   CLOUDY    50  48  93 E14       29.92S
Toronto Canada PTSUNNY   39  25  56 E5        30.16F WCI  36

$$




USA.gov is the U.S. government's official web portal to all federal, state and local government web resources and services.